Regional Weather Roundup
Issued by NWS Albany, NY

Home | Current Version | Previous Version | Text Only | Print | Product List | Glossary On
Versions: 1 2 3 4 5 6 7 8 9 10 11 12 13 14 15 16 17 18 19 20 21 22 23 24 25 26 27 28 29 30 31 32 33 34 35 36 37 38 39 40 41 42 43 44 45 46 47 48 49 50
000
ASUS41 KALY 051110
RWRALY

NEW YORK STATE HOURLY WEATHER ROUNDUP
NATIONAL WEATHER SERVICE ALBANY NY
700 AM EDT SUN JUL 05 2015

NOTE: "FAIR" INDICATES FEW OR NO CLOUDS BELOW 12,000 FEET WITH NO
SIGNIFICANT WEATHER AND/OR NO OBSTRUCTIONS TO VISIBILITY.

NYZ032-033-038>043-046>054-057>066-NYZ062>081-051200-
EAST


CITY           SKY/WX    TMP DP  RH WIND       PRES   REMARKS
ALBANY         SUNNY     61  58  90 S5        30.08R FOG
GLENS FALLS    FOG       61  60  97 SE5       30.07R VSB 1/4
POUGHKEEPSIE   MOSUNNY   59  56  89 CALM      30.08R FOG
NEWBURGH       SUNNY     59  59 100 CALM      30.08S
MONTGOMERY     SUNNY     61  60  97 SW5       30.08S FOG
WHITE PLAINS   SUNNY     64  61  90 NW3       30.08R FOG
ISLIP          PTSUNNY   67  61  81 NW5       30.07R
NEW YORK CITY  PTSUNNY   70  60  70 NW9       30.08R
CENTRAL PARK   MOSUNNY   70  59  68 MISG      30.11R
$$

NYZ005>009-017-018-044>046-055-056-051200-
CENTRAL


CITY           SKY/WX    TMP DP  RH WIND       PRES   REMARKS
FULTON         PTSUNNY   60  56  86 CALM      30.10R
SYRACUSE       SUNNY     61  59  93 CALM      30.10R
ROME           SUNNY     57  55  93 CALM      30.11R
ELMIRA         PTSUNNY   60  59  96 W5        30.13R
BINGHAMTON     FOG       57  57 100 VRB3      30.14R VSB 1/4
MONTICELLO     CLOUDY    59  59 100 W3        30.13R
$$

NYZ026>034-041>043-051200-
NORTH


CITY           SKY/WX    TMP DP  RH WIND       PRES   REMARKS
WATERTOWN      SUNNY     60  54  80 SW3       30.08R
FORT DRUM      NOT AVBL
MASSENA        PTSUNNY   61  55  81 SW9       30.07R
SARANAC LAKE   MOSUNNY   56  55  97 CALM      30.08R FOG
PLATTSBURGH    MOSUNNY   62  61  96 S5        30.02R FOG
$$

NYZ001>004-010>016-019>021-051200-
WEST


CITY           SKY/WX    TMP DP  RH WIND       PRES   REMARKS
NIAGARA FALLS  MOSUNNY   61  59  93 S6        30.10R
BUFFALO        SUNNY     60  54  80 S7        30.12R
DUNKIRK        SUNNY     60  53  77 SW3       30.13R
JAMESTOWN      SUNNY     54  48  82 CALM      30.17R
WELLSVILLE     SUNNY     54  52  93 MISG      30.18R FOG
ROCHESTER      SUNNY     59  55  87 W3        30.11R
PENN YAN       SUNNY     60  56  86 SW8       30.12R
$$

             KEY
       WCI = WIND CHILL INDEX
       VSB = VISIBILITY
       HX  = HEAT INDEX
$$


USA.gov is the U.S. government's official web portal to all federal, state and local government web resources and services.